Miscellaneous Local Product
Issued by NWS North Platte, NE

Home | Current Version | Previous Version | Graphics & Text | Print | Product List | Glossary On
Versions: 1 2 3 4 5 6 7 8 9 10 11 12 13 14 15 16 17 18 19 20 21 22 23 24 25 26 27 28 29 30 31 32 33 34 35 36 37 38 39 40 41 42 43 44 45 46 47 48 49 50
000
AXUS43 KLBF 222310
MISLBF


WESTERN AND NORTH CENTRAL NEBRASKA HOURLY WEATHER ROUNDUP
NATIONAL WEATHER SERVICE NORTH PLATTE NE
600 PM CDT MON SEP 22 2014

***STATIONS NOT REPORTING VARIABLES SUCH AS SKY/WEATHER OR
PRESSURE ARE PROVIDED BY THE NEBRASKA DEPARTMENT OF
ROADS...RAWS...AND APRS NETWORKS...AND ARE NOT UNDER
NATIONAL WEATHER SERVICE QUALITY CONTROL***

...OBSERVATIONS IN AND NEAR THE EASTERN PANHANDLE OF NEBRASKA...

CITY           SKY/WX    TMP DP  RH WIND       PRES   REMARKS
PINE RIDGE     CLOUDY    69  54  58 S14G24    30.01S
CHADRON        CLOUDY    73  55  53 SW16G29   29.99S
ALLIANCE       LGT RAIN  66  58  75 NW5       30.07S
SIDNEY         PTSUNNY   75  54  47 SE21G28   30.07F
WHITECLAY        N/A     70  54  56 S17         N/A
RUSHVILLE        N/A     68  53  57 S24         N/A
CRESCENT LAKE    N/A     65  54  68 SE9G16      N/A
LISCO            N/A     74  58  58 E16         N/A
BIG SPRINGS      N/A     66  59  79 SE8         N/A
$$

...OBSERVATIONS IN NORTH CENTRAL NEBRASKA...

CITY           SKY/WX    TMP DP  RH WIND       PRES   REMARKS
VALENTINE      CLOUDY    65  51  60 S21G30    30.08F
THEDFORD       DRIZZLE   59  55  86 S21       30.12F
AINSWORTH      DRIZZLE   60  53  78 S10       30.10S
O`NEILL        CLOUDY    71  52  50 S9        30.13F
ORD            CLOUDY    71  49  45 S8        30.12F
BROKEN BOW     LGT RAIN  65  53  65 S7        30.16R
SPRINGVIEW       N/A     71  51  48 S6G16       N/A
ROSE             N/A     74  54  49 E10         N/A
NEWPORT          N/A     72  50  46 S10         N/A
COMSTOCK         N/A     74  53  46 S6          N/A
CHAMBERS         N/A     70  48  44 S7          N/A
$$

...OBSERVATIONS IN SOUTHWEST NEBRASKA AND FAR NORTHEAST COLORADO...

CITY           SKY/WX    TMP DP  RH WIND       PRES   REMARKS
WRAY           FAIR      78  52  39 SE18G25   30.04F
HOLYOKE        FAIR      77  54  44 SE12G21   30.06F
IMPERIAL       CLOUDY    73  50  44 SE17G28   30.08F
OGALLALA       CLOUDY    65  57  74 SE10      30.08F
NORTH PLATTE   LGT RAIN  58  55  90 E8        30.13F
MCCOOK         CLOUDY    75  46  35 SE16G25   30.10F
LEXINGTON      LGT RAIN  68  53  58 SE3       30.14F
PAXTON           N/A     60  55  83 SE6         N/A
SUTHERLAND       N/A     56  53  88 SE10        N/A
BRADY            N/A     59  53  80 CALM        N/A
GOTHENBURG       N/A     67  48  51 S3          N/A
CALLAWAY         N/A     59  56  88 SE5         N/A
$$

...SOME WEATHER OBSERVATIONS FROM AROUND THE REGION...

CITY           SKY/WX    TMP DP  RH WIND       PRES   REMARKS
DENVER         PTSUNNY   79  46  31 N10       30.10F
LARAMIE        CLOUDY    62  42  47 W14       30.21R
CHEYENNE       PTSUNNY   71  44  37 S3        30.14F
SCOTTSBLUFF    PTSUNNY   71  59  65 S8        30.06R
RAPID CITY     CLOUDY    72  50  45 S15       29.92F
PIERRE         MOSUNNY   76  47  35 S22G31    29.97S
WINNER         PTSUNNY   73  47  39 S18       30.05S
SIOUX FALLS    PTSUNNY   72  47  40 S12       30.14F
OMAHA          PTSUNNY   73  50  44 S10       30.19F
GRAND ISLAND   PTSUNNY   72  49  44 S8        30.16F
KANSAS CITY    PTSUNNY   70  51  51 CALM      30.22F
WICHITA        MOSUNNY   78  45  30 SE7       30.18F
HAYS           PTSUNNY   77  45  31 SE15      30.15F
LIBERAL        PTSUNNY   79  48  34 SE16      30.18F
GOODLAND       LGT RAIN  71  54  54 S25G37    30.08F
$$



USA.gov is the U.S. government's official web portal to all federal, state and local government web resources and services.